Погода в Сапожке

Россия / Рязанская область     53°56′36″N   40°40′56″E
темп.,
°C
ветер,
м/с
пор.,
м/с
влажн.,
%
обл.,
%
осадки,
мм/ч
давл.,
гПа
погр.,
м
10 апреля, сб
сб1000:00+3в116395 0.0 102710
03:00+1всв22660 0.0 102810
06:00+1в22695 0.0 102917
09:00+6в23520 0.0 1028406
12:00+9св22381 0.0 10271420
15:00+10ссв22340 0.0 10261552
18:00+9ссв23450 0.0 102677
21:00+5ссв22560 0.0 102612
11 апреля, вс
вс1100:00+4ссв11650 0.0 102710
03:00+3с22670 0.0 102812
06:00+2с2269100 0.0 102918
09:00+7св235290 0.0 1030304
12:00+11ссв3439100 0.0 1030954
15:00+12св4536100 0.0 10301133
18:00+10св4750100 0.0 1030216
21:00+6св4962100 0.0 1031165
12 апреля, пн
пн1200:00+5св4107195 0.0 1031228
03:00+5св51173100 0.0 1031295
06:00+5всв51089100 0.0 1031322
09:00+8в6984100 0.0 1030407
12:00+13в6868100 0.0 1028549
15:00+16в5859100 0.0 1027667
18:00+15в3765100 0.0 1026140
21:00+11вюв41075100 0.0 1027167
13 апреля, вт
вт1300:00+10юв41276100 0.0 1027190
03:00+9юв4108180 0.0 1027151
06:00+7юв4107864 0.0 1027162
09:00+13ююв5951100 0.0 1026358
12:00+17ююв683986 0.0 1025811
15:00+19ююв6834100 0.0 10251566
18:00+17юв3545100 0.0 102385
21:00+12юв410605 0.0 1024170
14 апреля, ср
ср1400:00+11юв514657 0.0 1024262
03:00+9юв4117097 0.0 1024201
06:00+9юв41171100 0.0 1023190
09:00+14ююв6104985 0.0 1022373
12:00+19ююв7103151 0.0 10211195
15:00+20ююв7925100 0.0 10201895
18:00+17ююв4841100 0.0 1019167
21:00+13ююв45548 0.0 101956